Year,Month,Day,Hour,Minute,Value (Times are PST for temperature in C)
2017,10,30,00,00,8.30
2017,10,30,00,01,8.30
2017,10,30,00,02,8.30
2017,10,30,00,03,8.30
2017,10,30,00,04,8.30
2017,10,30,00,05,8.20
2017,10,30,00,06,8.20
2017,10,30,00,07,8.10
2017,10,30,00,08,8.10
2017,10,30,00,09,8.00
2017,10,30,00,10,7.90
2017,10,30,00,11,7.80
2017,10,30,00,12,7.70
2017,10,30,00,13,7.70
2017,10,30,00,14,7.70
2017,10,30,00,15,7.70
2017,10,30,00,16,7.70
2017,10,30,00,17,7.70
2017,10,30,00,18,7.70
2017,10,30,00,19,7.70
2017,10,30,00,20,7.60
2017,10,30,00,21,7.60
2017,10,30,00,22,7.60
2017,10,30,00,23,7.60
2017,10,30,00,24,7.60
2017,10,30,00,25,7.50
2017,10,30,00,26,7.50
2017,10,30,00,27,7.50
2017,10,30,00,28,7.50
2017,10,30,00,29,7.40
2017,10,30,00,30,7.40
2017,10,30,00,31,7.40
2017,10,30,00,32,7.40
2017,10,30,00,33,7.40
2017,10,30,00,34,7.40
2017,10,30,00,35,7.50
2017,10,30,00,36,7.50
2017,10,30,00,37,7.50
2017,10,30,00,38,7.50
2017,10,30,00,39,7.60
2017,10,30,00,40,7.60
2017,10,30,00,41,7.60
2017,10,30,00,42,7.60
2017,10,30,00,43,7.50
2017,10,30,00,44,7.50
2017,10,30,00,45,7.40
2017,10,30,00,46,7.40
2017,10,30,00,47,7.30
2017,10,30,00,48,7.30
2017,10,30,00,49,7.20
2017,10,30,00,50,7.10
2017,10,30,00,51,7.10
2017,10,30,00,52,7.10
2017,10,30,00,53,7.00
2017,10,30,00,54,7.00
2017,10,30,00,55,7.00
2017,10,30,00,56,7.00
2017,10,30,00,57,7.00
2017,10,30,00,58,7.00
2017,10,30,00,59,7.00
2017,10,30,01,00,7.00
2017,10,30,01,01,6.90
2017,10,30,01,02,6.90
2017,10,30,01,03,6.90
2017,10,30,01,04,6.90
2017,10,30,01,05,6.90
2017,10,30,01,06,6.90
2017,10,30,01,07,7.00
2017,10,30,01,08,7.00
2017,10,30,01,09,7.00
2017,10,30,01,10,6.90
2017,10,30,01,11,6.90
2017,10,30,01,12,7.00
2017,10,30,01,13,7.00
2017,10,30,01,14,7.00
2017,10,30,01,15,7.00
2017,10,30,01,16,6.90
2017,10,30,01,17,7.00
2017,10,30,01,18,7.00
2017,10,30,01,19,6.90
2017,10,30,01,20,6.90
2017,10,30,01,21,6.90
2017,10,30,01,22,6.80
2017,10,30,01,23,6.80
2017,10,30,01,24,6.80
2017,10,30,01,25,6.80
2017,10,30,01,26,6.80
2017,10,30,01,27,6.80
2017,10,30,01,28,6.80
2017,10,30,01,29,6.80
2017,10,30,01,30,6.80
2017,10,30,01,31,6.80
2017,10,30,01,32,6.80
2017,10,30,01,33,6.80
2017,10,30,01,34,6.80
2017,10,30,01,35,6.80
2017,10,30,01,36,6.80
2017,10,30,01,37,6.80
2017,10,30,01,38,6.80
2017,10,30,01,39,6.80
2017,10,30,01,40,6.90
2017,10,30,01,41,6.90
2017,10,30,01,42,6.90
2017,10,30,01,43,6.90
2017,10,30,01,44,7.00
2017,10,30,01,45,6.90
2017,10,30,01,46,6.90
2017,10,30,01,47,6.90
2017,10,30,01,48,6.90
2017,10,30,01,49,6.90
2017,10,30,01,50,6.90
2017,10,30,01,51,6.90
2017,10,30,01,52,6.90
2017,10,30,01,53,6.90
2017,10,30,01,54,6.90
2017,10,30,01,55,6.90
2017,10,30,01,56,6.90
2017,10,30,01,57,6.90
2017,10,30,01,58,6.90
2017,10,30,01,59,6.90
2017,10,30,02,00,6.90
2017,10,30,02,01,6.80
2017,10,30,02,02,6.80
2017,10,30,02,03,6.80
2017,10,30,02,04,6.80
2017,10,30,02,05,6.80
2017,10,30,02,06,6.80
2017,10,30,02,07,6.80
2017,10,30,02,08,6.90
2017,10,30,02,09,7.00
2017,10,30,02,10,7.10
2017,10,30,02,11,7.10
2017,10,30,02,12,7.10
2017,10,30,02,13,7.00
2017,10,30,02,14,6.90
2017,10,30,02,15,6.90
2017,10,30,02,16,6.80
2017,10,30,02,17,6.80
2017,10,30,02,18,6.70
2017,10,30,02,19,6.70
2017,10,30,02,20,6.70
2017,10,30,02,21,6.60
2017,10,30,02,22,6.60
2017,10,30,02,23,6.50
2017,10,30,02,24,6.40
2017,10,30,02,25,6.40
2017,10,30,02,26,6.40
2017,10,30,02,27,6.40
2017,10,30,02,28,6.40
2017,10,30,02,29,6.40
2017,10,30,02,30,6.40
2017,10,30,02,31,6.50
2017,10,30,02,32,6.50
2017,10,30,02,33,6.50
2017,10,30,02,34,6.50
2017,10,30,02,35,6.60
2017,10,30,02,36,6.60
2017,10,30,02,37,6.60
2017,10,30,02,38,6.60
2017,10,30,02,39,6.60
2017,10,30,02,40,6.60
2017,10,30,02,41,6.60
2017,10,30,02,42,6.70
2017,10,30,02,43,6.90
2017,10,30,02,44,7.00
2017,10,30,02,45,7.10
2017,10,30,02,46,7.20
2017,10,30,02,47,7.20
2017,10,30,02,48,7.30
2017,10,30,02,49,7.30
2017,10,30,02,50,7.30
2017,10,30,02,51,7.30
2017,10,30,02,52,7.30
2017,10,30,02,53,7.30
2017,10,30,02,54,7.40
2017,10,30,02,55,7.40
2017,10,30,02,56,7.50
2017,10,30,02,57,7.60
2017,10,30,02,58,7.60
2017,10,30,02,59,7.50
2017,10,30,03,00,7.50
2017,10,30,03,01,7.40
2017,10,30,03,02,7.30
2017,10,30,03,03,7.30
2017,10,30,03,04,7.20
2017,10,30,03,05,7.10
2017,10,30,03,06,7.00
2017,10,30,03,07,6.90
2017,10,30,03,08,6.80
2017,10,30,03,09,6.70
2017,10,30,03,10,6.60
2017,10,30,03,11,6.60
2017,10,30,03,12,6.60
2017,10,30,03,13,6.60
2017,10,30,03,14,6.60
2017,10,30,03,15,6.70
2017,10,30,03,16,6.70
2017,10,30,03,17,6.70
2017,10,30,03,18,6.60
2017,10,30,03,19,6.50
2017,10,30,03,20,6.50
2017,10,30,03,21,6.40
2017,10,30,03,22,6.40
2017,10,30,03,23,6.30
2017,10,30,03,24,6.30
2017,10,30,03,25,6.30
2017,10,30,03,26,6.30
2017,10,30,03,27,6.30
2017,10,30,03,28,6.30
2017,10,30,03,29,6.30
2017,10,30,03,30,6.20
2017,10,30,03,31,6.20
2017,10,30,03,32,6.20
2017,10,30,03,33,6.20
2017,10,30,03,34,6.30
2017,10,30,03,35,6.20
2017,10,30,03,36,6.20
2017,10,30,03,37,6.20
2017,10,30,03,38,6.30
2017,10,30,03,39,6.30
2017,10,30,03,40,6.30
2017,10,30,03,41,6.30
2017,10,30,03,42,6.30
2017,10,30,03,43,6.20
2017,10,30,03,44,6.20
2017,10,30,03,45,6.10
2017,10,30,03,46,6.10
2017,10,30,03,47,6.00
2017,10,30,03,48,6.00
2017,10,30,03,49,5.90
2017,10,30,03,50,5.90
2017,10,30,03,51,5.80
2017,10,30,03,52,5.80
2017,10,30,03,53,5.70
2017,10,30,03,54,5.70
2017,10,30,03,55,5.70
2017,10,30,03,56,5.70
2017,10,30,03,57,5.80
2017,10,30,03,58,5.70
2017,10,30,03,59,5.70
2017,10,30,04,00,5.70
2017,10,30,04,01,5.70
2017,10,30,04,02,5.60
2017,10,30,04,03,5.50
2017,10,30,04,04,5.50
2017,10,30,04,05,5.40
2017,10,30,04,06,5.40
2017,10,30,04,07,5.30
2017,10,30,04,08,5.30
2017,10,30,04,09,5.30
2017,10,30,04,10,5.30
2017,10,30,04,11,5.20
2017,10,30,04,12,5.20
2017,10,30,04,13,5.20
2017,10,30,04,14,5.20
2017,10,30,04,15,5.10
2017,10,30,04,16,5.10
2017,10,30,04,17,5.10
2017,10,30,04,18,5.10
2017,10,30,04,19,5.20
2017,10,30,04,20,5.20
2017,10,30,04,21,5.20
2017,10,30,04,22,5.20
2017,10,30,04,23,5.30
2017,10,30,04,24,5.30
2017,10,30,04,25,5.30
2017,10,30,04,26,5.30
2017,10,30,04,27,5.30
2017,10,30,04,28,5.40
2017,10,30,04,29,5.40
2017,10,30,04,30,5.50
2017,10,30,04,31,5.60
2017,10,30,04,32,5.60
2017,10,30,04,33,5.50
2017,10,30,04,34,5.50
2017,10,30,04,35,5.50
2017,10,30,04,36,5.50
2017,10,30,04,37,5.60
2017,10,30,04,38,5.60
2017,10,30,04,39,5.60
2017,10,30,04,40,5.60
2017,10,30,04,41,5.50
2017,10,30,04,42,5.50
2017,10,30,04,43,5.50
2017,10,30,04,44,5.50
2017,10,30,04,45,5.60
2017,10,30,04,46,5.60
2017,10,30,04,47,5.60
2017,10,30,04,48,5.60
2017,10,30,04,49,5.70
2017,10,30,04,50,5.70
2017,10,30,04,51,5.70
2017,10,30,04,52,5.70
2017,10,30,04,53,5.70
2017,10,30,04,54,5.70
2017,10,30,04,55,5.70
2017,10,30,04,56,5.70
2017,10,30,04,57,5.70
2017,10,30,04,58,5.70
2017,10,30,04,59,5.80
2017,10,30,05,00,5.80
2017,10,30,05,01,5.80
2017,10,30,05,02,5.70
2017,10,30,05,03,5.70
2017,10,30,05,04,5.70
2017,10,30,05,05,5.70
2017,10,30,05,06,5.70
2017,10,30,05,07,5.70
2017,10,30,05,08,5.80
2017,10,30,05,09,5.90
2017,10,30,05,10,6.00
2017,10,30,05,11,6.20
2017,10,30,05,12,6.30
2017,10,30,05,13,6.40
2017,10,30,05,14,6.40
2017,10,30,05,15,6.20
2017,10,30,05,16,6.00
2017,10,30,05,17,5.90
2017,10,30,05,18,5.90
2017,10,30,05,19,5.80
2017,10,30,05,20,5.70
2017,10,30,05,21,5.70
2017,10,30,05,22,5.60
2017,10,30,05,23,5.60
2017,10,30,05,24,5.60
2017,10,30,05,25,5.60
2017,10,30,05,26,5.50
2017,10,30,05,27,5.50
2017,10,30,05,28,5.40
2017,10,30,05,29,5.30
2017,10,30,05,30,5.30
2017,10,30,05,31,5.20
2017,10,30,05,32,5.10
2017,10,30,05,33,5.10
2017,10,30,05,34,5.00
2017,10,30,05,35,5.00
2017,10,30,05,36,5.00
2017,10,30,05,37,5.00
2017,10,30,05,38,4.90
2017,10,30,05,39,4.90
2017,10,30,05,40,4.90
2017,10,30,05,41,4.80
2017,10,30,05,42,4.80
2017,10,30,05,43,4.80
2017,10,30,05,44,4.90
2017,10,30,05,45,4.80
2017,10,30,05,46,4.80
2017,10,30,05,47,4.80
2017,10,30,05,48,4.80
2017,10,30,05,49,4.70
2017,10,30,05,50,4.70
2017,10,30,05,51,4.70
2017,10,30,05,52,4.70
2017,10,30,05,53,4.70
2017,10,30,05,54,4.70
2017,10,30,05,55,4.60
2017,10,30,05,56,4.60
2017,10,30,05,57,4.60
2017,10,30,05,58,4.50
2017,10,30,05,59,4.50
2017,10,30,06,00,4.40
2017,10,30,06,01,4.40
2017,10,30,06,02,4.40
2017,10,30,06,03,4.50
2017,10,30,06,04,4.50
2017,10,30,06,05,4.50
2017,10,30,06,06,4.40
2017,10,30,06,07,4.40
2017,10,30,06,08,4.40
2017,10,30,06,09,4.40
2017,10,30,06,10,4.40
2017,10,30,06,11,4.40
2017,10,30,06,12,4.30
2017,10,30,06,13,4.30
2017,10,30,06,14,4.20
2017,10,30,06,15,4.20
2017,10,30,06,16,4.20
2017,10,30,06,17,4.20
2017,10,30,06,18,4.20
2017,10,30,06,19,4.20
2017,10,30,06,20,4.20
2017,10,30,06,21,4.20
2017,10,30,06,22,4.20
2017,10,30,06,23,4.20
2017,10,30,06,24,4.20
2017,10,30,06,25,4.10
2017,10,30,06,26,4.10
2017,10,30,06,27,4.10
2017,10,30,06,28,4.10
2017,10,30,06,29,4.10
2017,10,30,06,30,4.10
2017,10,30,06,31,4.10
2017,10,30,06,32,4.00
2017,10,30,06,33,4.00
2017,10,30,06,34,4.00
2017,10,30,06,35,4.00
2017,10,30,06,36,4.00
2017,10,30,06,37,4.00
2017,10,30,06,38,4.00
2017,10,30,06,39,4.00
2017,10,30,06,40,4.00
2017,10,30,06,41,4.00
2017,10,30,06,42,4.00
2017,10,30,06,43,4.00
2017,10,30,06,44,4.00
2017,10,30,06,45,4.00
2017,10,30,06,46,4.00
2017,10,30,06,47,4.10
2017,10,30,06,48,4.10
2017,10,30,06,49,4.20
2017,10,30,06,50,4.20
2017,10,30,06,51,4.20
2017,10,30,06,52,4.20
2017,10,30,06,53,4.20
2017,10,30,06,54,4.20
2017,10,30,06,55,4.20
2017,10,30,06,56,4.20
2017,10,30,06,57,4.20
2017,10,30,06,58,4.10
2017,10,30,06,59,4.10
2017,10,30,07,00,4.10
2017,10,30,07,01,4.10
2017,10,30,07,02,4.10
2017,10,30,07,03,4.10
2017,10,30,07,04,4.10
2017,10,30,07,05,4.10
2017,10,30,07,06,4.10
2017,10,30,07,07,4.10
2017,10,30,07,08,4.10
2017,10,30,07,09,4.10
2017,10,30,07,10,4.10
2017,10,30,07,11,4.10
2017,10,30,07,12,4.10
2017,10,30,07,13,4.10
2017,10,30,07,14,4.10
2017,10,30,07,15,4.10
2017,10,30,07,16,4.10
2017,10,30,07,17,4.10
2017,10,30,07,18,4.10
2017,10,30,07,19,4.10
2017,10,30,07,20,4.10
2017,10,30,07,21,4.00
2017,10,30,07,22,4.00
2017,10,30,07,23,4.00
2017,10,30,07,24,4.00
2017,10,30,07,25,3.90
2017,10,30,07,26,3.90
2017,10,30,07,27,3.90
2017,10,30,07,28,3.90
2017,10,30,07,29,3.90
2017,10,30,07,30,3.90
2017,10,30,07,31,4.00
2017,10,30,07,32,4.00
2017,10,30,07,33,4.00
2017,10,30,07,34,3.90
2017,10,30,07,35,3.90
2017,10,30,07,36,3.90
2017,10,30,07,37,3.90
2017,10,30,07,38,3.80
2017,10,30,07,39,3.80
2017,10,30,07,40,3.80
2017,10,30,07,41,3.80
2017,10,30,07,42,3.80
2017,10,30,07,43,3.80
2017,10,30,07,44,3.80
2017,10,30,07,45,3.80
2017,10,30,07,46,3.80
2017,10,30,07,47,3.80
2017,10,30,07,48,3.80
2017,10,30,07,49,3.80
2017,10,30,07,50,3.80
2017,10,30,07,51,3.80
2017,10,30,07,52,3.80
2017,10,30,07,53,3.80
2017,10,30,07,54,3.80
2017,10,30,07,55,3.80
2017,10,30,07,56,3.80
2017,10,30,07,57,3.80
2017,10,30,07,58,3.90
2017,10,30,07,59,3.90
2017,10,30,08,00,3.90
2017,10,30,08,01,3.90
2017,10,30,08,02,3.90
2017,10,30,08,03,3.90
2017,10,30,08,04,3.90
2017,10,30,08,05,3.90
2017,10,30,08,06,3.90
2017,10,30,08,07,3.90
2017,10,30,08,08,3.90
2017,10,30,08,09,3.90
2017,10,30,08,10,3.90
2017,10,30,08,11,3.90
2017,10,30,08,12,3.80
2017,10,30,08,13,3.80
2017,10,30,08,14,3.80
2017,10,30,08,15,3.80
2017,10,30,08,16,3.80
2017,10,30,08,17,3.70
2017,10,30,08,18,3.70
2017,10,30,08,19,3.70
2017,10,30,08,20,3.70
2017,10,30,08,21,3.80
2017,10,30,08,22,3.80
2017,10,30,08,23,3.80
2017,10,30,08,24,3.70
2017,10,30,08,25,3.70
2017,10,30,08,26,3.60
2017,10,30,08,27,3.60
2017,10,30,08,28,3.60
2017,10,30,08,29,3.70
2017,10,30,08,30,3.70
2017,10,30,08,31,3.70
2017,10,30,08,32,3.70
2017,10,30,08,33,3.80
2017,10,30,08,34,3.80
2017,10,30,08,35,3.80
2017,10,30,08,36,3.80
2017,10,30,08,37,3.80
2017,10,30,08,38,3.80
2017,10,30,08,39,3.80
2017,10,30,08,40,3.80
2017,10,30,08,41,3.80
2017,10,30,08,42,3.80
2017,10,30,08,43,3.80
2017,10,30,08,44,3.80
2017,10,30,08,45,3.80
2017,10,30,08,46,3.80
2017,10,30,08,47,3.80
2017,10,30,08,48,3.90
2017,10,30,08,49,4.00
2017,10,30,08,50,4.10
2017,10,30,08,51,4.10
2017,10,30,08,52,4.20
2017,10,30,08,53,4.20
2017,10,30,08,54,4.20
2017,10,30,08,55,4.30
2017,10,30,08,56,4.30
2017,10,30,08,57,4.40
2017,10,30,08,58,4.50
2017,10,30,08,59,4.60
2017,10,30,09,00,4.70
2017,10,30,09,01,4.80
2017,10,30,09,02,4.90
2017,10,30,09,03,5.00
2017,10,30,09,04,5.00
2017,10,30,09,05,5.10
2017,10,30,09,06,5.10
2017,10,30,09,07,5.20
2017,10,30,09,08,5.20
2017,10,30,09,09,5.20
2017,10,30,09,10,5.20
2017,10,30,09,11,5.20
2017,10,30,09,12,5.30
2017,10,30,09,13,5.30
2017,10,30,09,14,5.30
2017,10,30,09,15,5.40
2017,10,30,09,16,5.40
2017,10,30,09,17,5.50
2017,10,30,09,18,5.50
2017,10,30,09,19,5.60
2017,10,30,09,20,5.60
2017,10,30,09,21,5.60
2017,10,30,09,22,5.70
2017,10,30,09,23,5.70
2017,10,30,09,24,5.70
2017,10,30,09,25,5.80
2017,10,30,09,26,5.80
2017,10,30,09,27,5.90
2017,10,30,09,28,6.00
2017,10,30,09,29,6.10
2017,10,30,09,30,6.10
2017,10,30,09,31,6.20
2017,10,30,09,32,6.30
2017,10,30,09,33,6.30
2017,10,30,09,34,6.30
2017,10,30,09,35,6.40
2017,10,30,09,36,6.40
2017,10,30,09,37,6.50
2017,10,30,09,38,6.50
2017,10,30,09,39,6.60
2017,10,30,09,40,6.70
2017,10,30,09,41,6.70
2017,10,30,09,42,6.80
2017,10,30,09,43,6.80
2017,10,30,09,44,6.90
2017,10,30,09,45,6.90
2017,10,30,09,46,6.90
2017,10,30,09,47,6.90
2017,10,30,09,48,6.90
2017,10,30,09,49,6.90
2017,10,30,09,50,7.00
2017,10,30,09,51,7.00
2017,10,30,09,52,7.10
2017,10,30,09,53,7.10
2017,10,30,09,54,7.10
2017,10,30,09,55,7.10
2017,10,30,09,56,7.20
2017,10,30,09,57,7.20
2017,10,30,09,58,7.20
2017,10,30,09,59,7.30
2017,10,30,10,00,7.30
2017,10,30,10,01,7.40
2017,10,30,10,02,7.40
2017,10,30,10,03,7.50
2017,10,30,10,04,7.60
2017,10,30,10,05,7.60
2017,10,30,10,06,7.70
2017,10,30,10,07,7.70
2017,10,30,10,08,7.70
2017,10,30,10,09,7.80
2017,10,30,10,10,7.80
2017,10,30,10,11,7.90
2017,10,30,10,12,7.90
2017,10,30,10,13,8.00
2017,10,30,10,14,8.00
2017,10,30,10,15,8.10
2017,10,30,10,16,8.10
2017,10,30,10,17,8.20
2017,10,30,10,18,8.20
2017,10,30,10,19,8.20
2017,10,30,10,20,8.20
2017,10,30,10,21,8.30
2017,10,30,10,22,8.30
2017,10,30,10,23,8.40
2017,10,30,10,24,8.50
2017,10,30,10,25,8.50
2017,10,30,10,26,8.60
2017,10,30,10,27,8.60
2017,10,30,10,28,8.70
2017,10,30,10,29,8.70
2017,10,30,10,30,8.70
2017,10,30,10,31,8.80
2017,10,30,10,32,8.90
2017,10,30,10,33,8.90
2017,10,30,10,34,8.90
2017,10,30,10,35,8.90
2017,10,30,10,36,8.90
2017,10,30,10,37,8.90
2017,10,30,10,38,8.90
2017,10,30,10,39,8.80
2017,10,30,10,40,8.80
2017,10,30,10,41,8.80
2017,10,30,10,42,8.80
2017,10,30,10,43,8.80
2017,10,30,10,44,8.90
2017,10,30,10,45,8.90
2017,10,30,10,46,9.00
2017,10,30,10,47,9.10
2017,10,30,10,48,9.20
2017,10,30,10,49,9.30
2017,10,30,10,50,9.40
2017,10,30,10,51,9.40
2017,10,30,10,52,9.50
2017,10,30,10,53,9.60
2017,10,30,10,54,9.70
2017,10,30,10,55,9.80
2017,10,30,10,56,9.90
2017,10,30,10,57,9.90
2017,10,30,10,58,10.00
2017,10,30,10,59,10.10
2017,10,30,11,00,10.10
2017,10,30,11,01,10.10
2017,10,30,11,02,10.10
2017,10,30,11,03,10.10
2017,10,30,11,04,10.10
2017,10,30,11,05,10.10
2017,10,30,11,06,10.10
2017,10,30,11,07,10.10
2017,10,30,11,08,10.10
2017,10,30,11,09,10.10
2017,10,30,11,10,10.20
2017,10,30,11,11,10.20
2017,10,30,11,12,10.30
2017,10,30,11,13,10.40
2017,10,30,11,14,10.40
2017,10,30,11,15,10.50
2017,10,30,11,16,10.50
2017,10,30,11,17,10.60
2017,10,30,11,18,10.60
2017,10,30,11,19,10.60
2017,10,30,11,20,10.60
2017,10,30,11,21,10.70
2017,10,30,11,22,10.80
2017,10,30,11,23,10.90
2017,10,30,11,24,11.00
2017,10,30,11,25,11.10
2017,10,30,11,26,11.20
2017,10,30,11,27,11.20
2017,10,30,11,28,11.30
2017,10,30,11,29,11.30
2017,10,30,11,30,11.40
2017,10,30,11,31,11.50
2017,10,30,11,32,11.50
2017,10,30,11,33,11.60
2017,10,30,11,34,11.60
2017,10,30,11,35,11.60
2017,10,30,11,36,11.60
2017,10,30,11,37,11.60
2017,10,30,11,38,11.70
2017,10,30,11,39,11.70
2017,10,30,11,40,11.80
2017,10,30,11,41,11.90
2017,10,30,11,42,11.90
2017,10,30,11,43,12.00
2017,10,30,11,44,12.10
2017,10,30,11,45,12.20
2017,10,30,11,46,12.30
2017,10,30,11,47,12.30
2017,10,30,11,48,12.40
2017,10,30,11,49,12.40
2017,10,30,11,50,12.40
2017,10,30,11,51,12.50
2017,10,30,11,52,12.60
2017,10,30,11,53,12.70
2017,10,30,11,54,12.80
2017,10,30,11,55,12.90
2017,10,30,11,56,13.00
2017,10,30,11,57,13.00
2017,10,30,11,58,13.00
2017,10,30,11,59,13.10
2017,10,30,12,00,13.10
2017,10,30,12,01,13.10
2017,10,30,12,02,13.10
2017,10,30,12,03,13.20
2017,10,30,12,04,13.20
2017,10,30,12,05,13.30
2017,10,30,12,06,13.40
2017,10,30,12,07,13.40
2017,10,30,12,08,13.50
2017,10,30,12,09,13.60
2017,10,30,12,10,13.60
2017,10,30,12,11,13.70
2017,10,30,12,12,13.80
2017,10,30,12,13,13.80
2017,10,30,12,14,13.80
2017,10,30,12,15,13.80
2017,10,30,12,16,13.70
2017,10,30,12,17,13.70
2017,10,30,12,18,13.60
2017,10,30,12,19,13.60
2017,10,30,12,20,13.50
2017,10,30,12,21,13.50
2017,10,30,12,22,13.50
2017,10,30,12,23,13.60
2017,10,30,12,24,13.70
2017,10,30,12,25,13.80
2017,10,30,12,26,13.90
2017,10,30,12,27,14.00
2017,10,30,12,28,14.00
2017,10,30,12,29,14.10
2017,10,30,12,30,14.10
2017,10,30,12,31,14.20
2017,10,30,12,32,14.20
2017,10,30,12,33,14.30
2017,10,30,12,34,14.30
2017,10,30,12,35,14.40
2017,10,30,12,36,14.40
2017,10,30,12,37,14.50
2017,10,30,12,38,14.50
2017,10,30,12,39,14.50
2017,10,30,12,40,14.50
2017,10,30,12,41,14.50
2017,10,30,12,42,14.60
2017,10,30,12,43,14.60
2017,10,30,12,44,14.60
2017,10,30,12,45,14.60
2017,10,30,12,46,14.60
2017,10,30,12,47,14.60
2017,10,30,12,48,14.60
2017,10,30,12,49,14.60
2017,10,30,12,50,14.60
2017,10,30,12,51,14.60
2017,10,30,12,52,14.70
2017,10,30,12,53,14.70
2017,10,30,12,54,14.70
2017,10,30,12,55,14.70
2017,10,30,12,56,14.80
2017,10,30,12,57,14.80
2017,10,30,12,58,14.90
2017,10,30,12,59,15.00
2017,10,30,13,00,15.10
2017,10,30,13,01,15.10
2017,10,30,13,02,15.20
2017,10,30,13,03,15.30
2017,10,30,13,04,15.30
2017,10,30,13,05,15.40
2017,10,30,13,06,15.40
2017,10,30,13,07,15.50
2017,10,30,13,08,15.50
2017,10,30,13,09,15.60
2017,10,30,13,10,15.60
2017,10,30,13,11,15.70
2017,10,30,13,12,15.70
2017,10,30,13,13,15.80
2017,10,30,13,14,15.80
2017,10,30,13,15,15.80
2017,10,30,13,16,15.80
2017,10,30,13,17,15.80
2017,10,30,13,18,15.70
2017,10,30,13,19,15.70
2017,10,30,13,20,15.70
2017,10,30,13,21,15.70
2017,10,30,13,22,15.70
2017,10,30,13,23,15.80
2017,10,30,13,24,15.80
2017,10,30,13,25,15.80
2017,10,30,13,26,15.80
2017,10,30,13,27,15.80
2017,10,30,13,28,15.90
2017,10,30,13,29,15.90
2017,10,30,13,30,15.90
2017,10,30,13,31,15.90
2017,10,30,13,32,15.90
2017,10,30,13,33,16.00
2017,10,30,13,34,16.00
2017,10,30,13,35,16.00
2017,10,30,13,36,16.00
2017,10,30,13,37,16.00
2017,10,30,13,38,16.10
2017,10,30,13,39,16.10
2017,10,30,13,40,16.10
2017,10,30,13,41,16.20
2017,10,30,13,42,16.20
2017,10,30,13,43,16.30
2017,10,30,13,44,16.30
2017,10,30,13,45,16.30
2017,10,30,13,46,16.40
2017,10,30,13,47,16.50
2017,10,30,13,48,16.50
2017,10,30,13,49,16.50
2017,10,30,13,50,16.50
2017,10,30,13,51,16.50
2017,10,30,13,52,16.50
2017,10,30,13,53,16.40
2017,10,30,13,54,16.40
2017,10,30,13,55,16.40
2017,10,30,13,56,16.30
2017,10,30,13,57,16.40
2017,10,30,13,58,16.40
2017,10,30,13,59,16.40
2017,10,30,14,00,16.40
2017,10,30,14,01,16.50
2017,10,30,14,02,16.60
2017,10,30,14,03,16.60
2017,10,30,14,04,16.70
2017,10,30,14,05,16.80
2017,10,30,14,06,16.90
2017,10,30,14,07,17.00
2017,10,30,14,08,17.10
2017,10,30,14,09,17.20
2017,10,30,14,10,17.30
2017,10,30,14,11,17.40
2017,10,30,14,12,17.50
2017,10,30,14,13,17.50
2017,10,30,14,14,17.50
2017,10,30,14,15,17.40
2017,10,30,14,16,17.40
2017,10,30,14,17,17.50
2017,10,30,14,18,17.40
2017,10,30,14,19,17.40
2017,10,30,14,20,17.40
2017,10,30,14,21,17.40
2017,10,30,14,22,17.30
2017,10,30,14,23,17.30
2017,10,30,14,24,17.20
2017,10,30,14,25,17.20
2017,10,30,14,26,17.30
2017,10,30,14,27,17.20
2017,10,30,14,28,17.20
2017,10,30,14,29,17.30
2017,10,30,14,30,17.20
2017,10,30,14,31,17.20
2017,10,30,14,32,17.20
2017,10,30,14,33,17.30
2017,10,30,14,34,17.30
2017,10,30,14,35,17.30
2017,10,30,14,36,17.30
2017,10,30,14,37,17.30
2017,10,30,14,38,17.30
2017,10,30,14,39,17.40
2017,10,30,14,40,17.40
2017,10,30,14,41,17.50
2017,10,30,14,42,17.50
2017,10,30,14,43,17.60
2017,10,30,14,44,17.60
2017,10,30,14,45,17.70
2017,10,30,14,46,17.90
2017,10,30,14,47,18.00
2017,10,30,14,48,18.10
2017,10,30,14,49,18.20
2017,10,30,14,50,18.30
2017,10,30,14,51,18.40
2017,10,30,14,52,18.40
2017,10,30,14,53,18.40
2017,10,30,14,54,18.50
2017,10,30,14,55,18.50
2017,10,30,14,56,18.60
2017,10,30,14,57,18.60
2017,10,30,14,58,18.60
2017,10,30,14,59,18.60
2017,10,30,15,00,18.60
2017,10,30,15,01,18.50
2017,10,30,15,02,18.50
2017,10,30,15,03,18.50
2017,10,30,15,04,18.40
2017,10,30,15,05,18.40
2017,10,30,15,06,18.40
2017,10,30,15,07,18.40
2017,10,30,15,08,18.40
2017,10,30,15,09,18.40
2017,10,30,15,10,18.40
2017,10,30,15,11,18.40
2017,10,30,15,12,18.40
2017,10,30,15,13,18.30
2017,10,30,15,14,18.30
2017,10,30,15,15,18.30
2017,10,30,15,16,18.30
2017,10,30,15,17,18.30
2017,10,30,15,18,18.40
2017,10,30,15,19,18.50
2017,10,30,15,20,18.50
2017,10,30,15,21,18.60
2017,10,30,15,22,18.70
2017,10,30,15,23,18.70
2017,10,30,15,24,18.80
2017,10,30,15,25,18.80
2017,10,30,15,26,18.80
2017,10,30,15,27,18.80
2017,10,30,15,28,18.70
2017,10,30,15,29,18.60
2017,10,30,15,30,18.50
2017,10,30,15,31,18.30
2017,10,30,15,32,18.10
2017,10,30,15,33,18.00
2017,10,30,15,34,17.80
2017,10,30,15,35,17.50
2017,10,30,15,36,17.20
2017,10,30,15,37,17.00
2017,10,30,15,38,16.80
2017,10,30,15,39,16.50
2017,10,30,15,40,16.30
2017,10,30,15,41,16.10
2017,10,30,15,42,16.00
2017,10,30,15,43,15.80
2017,10,30,15,44,15.70
2017,10,30,15,45,15.60
2017,10,30,15,46,15.50
2017,10,30,15,47,15.40
2017,10,30,15,48,15.40
2017,10,30,15,49,15.50
2017,10,30,15,50,15.60
2017,10,30,15,51,15.70
2017,10,30,15,52,15.80
2017,10,30,15,53,15.90
2017,10,30,15,54,16.00
2017,10,30,15,55,16.20
2017,10,30,15,56,16.40
2017,10,30,15,57,16.50
2017,10,30,15,58,16.60
2017,10,30,15,59,16.80
2017,10,30,16,00,16.90
2017,10,30,16,01,16.90
2017,10,30,16,02,17.00
2017,10,30,16,03,17.00
2017,10,30,16,04,16.90
2017,10,30,16,05,16.90
2017,10,30,16,06,16.70
2017,10,30,16,07,16.50
2017,10,30,16,08,16.30
2017,10,30,16,09,16.10
2017,10,30,16,10,15.80
2017,10,30,16,11,15.60
2017,10,30,16,12,15.40
2017,10,30,16,13,15.30
2017,10,30,16,14,15.20
2017,10,30,16,15,15.10
2017,10,30,16,16,15.10
2017,10,30,16,17,15.00
2017,10,30,16,18,15.00
2017,10,30,16,19,15.00
2017,10,30,16,20,15.00
2017,10,30,16,21,15.00
2017,10,30,16,22,15.00
2017,10,30,16,23,15.10
2017,10,30,16,24,15.10
2017,10,30,16,25,15.10
2017,10,30,16,26,15.20
2017,10,30,16,27,15.20
2017,10,30,16,28,15.20
2017,10,30,16,29,15.20
2017,10,30,16,30,15.20
2017,10,30,16,31,15.20
2017,10,30,16,32,15.20
2017,10,30,16,33,15.10
2017,10,30,16,34,15.10
2017,10,30,16,35,15.10
2017,10,30,16,36,15.10
2017,10,30,16,37,15.10
2017,10,30,16,38,15.10
2017,10,30,16,39,15.10
2017,10,30,16,40,15.10
2017,10,30,16,41,15.10
2017,10,30,16,42,15.10
2017,10,30,16,43,15.10
2017,10,30,16,44,15.10
2017,10,30,16,45,15.00
2017,10,30,16,46,15.00
2017,10,30,16,47,15.00
2017,10,30,16,48,15.00
2017,10,30,16,49,15.00
2017,10,30,16,50,15.00
2017,10,30,16,51,14.90
2017,10,30,16,52,14.90
2017,10,30,16,53,14.90
2017,10,30,16,54,14.80
2017,10,30,16,55,14.80
2017,10,30,16,56,14.80
2017,10,30,16,57,14.70
2017,10,30,16,58,14.70
2017,10,30,16,59,14.70
2017,10,30,17,00,14.70
2017,10,30,17,01,14.60
2017,10,30,17,02,14.60
2017,10,30,17,03,14.60
2017,10,30,17,04,14.60
2017,10,30,17,05,14.50
2017,10,30,17,06,14.40
2017,10,30,17,07,14.40
2017,10,30,17,08,14.30
2017,10,30,17,09,14.30
2017,10,30,17,10,14.30
2017,10,30,17,11,14.30
2017,10,30,17,12,14.30
2017,10,30,17,13,14.30
2017,10,30,17,14,14.20
2017,10,30,17,15,14.20
2017,10,30,17,16,14.20
2017,10,30,17,17,14.10
2017,10,30,17,18,14.00
2017,10,30,17,19,13.90
2017,10,30,17,20,13.80
2017,10,30,17,21,13.80
2017,10,30,17,22,13.70
2017,10,30,17,23,13.70
2017,10,30,17,24,13.60
2017,10,30,17,25,13.60
2017,10,30,17,26,13.50
2017,10,30,17,27,13.50
2017,10,30,17,28,13.40
2017,10,30,17,29,13.40
2017,10,30,17,30,13.30
2017,10,30,17,31,13.20
2017,10,30,17,32,13.20
2017,10,30,17,33,13.10
2017,10,30,17,34,13.00
2017,10,30,17,35,13.00
2017,10,30,17,36,12.90
2017,10,30,17,37,12.80
2017,10,30,17,38,12.80
2017,10,30,17,39,12.70
2017,10,30,17,40,12.60
2017,10,30,17,41,12.50
2017,10,30,17,42,12.50
2017,10,30,17,43,12.40
2017,10,30,17,44,12.30
2017,10,30,17,45,12.20
2017,10,30,17,46,12.10
2017,10,30,17,47,12.10
2017,10,30,17,48,12.00